Snowfall_Accumulation
0.0 0.4 1.5 0.1 0.1 0.2 0.3 0.9 1.1 0.0 0.0 0.0 0.1 0.0 0.0 0.0 0.0 0.0 0.0 0.0 0.0 0.0 0.0 0.0 0.0 0.0 0.0 0.0 0.0 0.0 0.0 0.0 0.0 0.0 0.0 0.0 0.0 0.0 0.0 0.0 0.0 0.0 0.0 0.0
0.7 1.9 0.0 0.0 0.0 0.2 0.3 1.1 1.0 0.0 0.0 0.1 0.1 0.1 0.0 0.0 0.0 0.0 0.0 0.0 0.0 0.0 0.0 0.0 0.0 0.0 0.0 0.0 0.0 0.0 0.0 0.0 0.0 0.0 0.0 0.0 0.0 0.0 0.0 0.0 0.0 0.0 0.0 0.0
1.8 0.2 0.0 0.0 0.0 0.1 0.6 1.4 0.6 0.6 0.0 0.0 0.2 0.6 0.0 0.0 0.0 0.0 0.0 0.0 0.0 0.0 0.0 0.0 0.0 0.0 0.0 0.0 0.0 0.0 0.0 0.0 0.0 0.0 0.0 0.0 0.0 0.0 0.0 0.0 0.0 0.0 0.0 0.0
1.7 0.0 0.0 0.6 1.5 0.2 2.3 0.2 0.4 0.7 5.0 6.0 0.3 14.6 0.0 0.0 0.0 0.0 0.0 0.0 0.0 0.0 0.0 0.0 0.0 0.0 0.0 0.0 0.0 0.0 0.0 0.0 0.0 0.0 0.0 0.0 0.0 0.0 0.0 0.0 0.0 0.0 0.0 0.0
3.7 0.5 0.6 3.4 0.5 0.0 3.2 0.1 0.2 0.9 4.1 5.2 2.3 11.9 0.0 0.0 0.0 0.0 0.0 0.0 0.0 0.0 0.0 0.0 0.0 0.0 0.0 0.0 0.0 0.0 0.0 0.0 0.0 0.0 0.0 0.0 0.0 0.0 0.0 0.0 0.0 0.0 0.0 0.0
0.7 0.0 2.6 1.2 0.1 0.3 0.1 1.6 0.7 2.6 6.4 38.3 1.5 1.4 0.2 0.2 0.8 0.0 0.0 0.1 0.1 0.0 0.0 0.0 0.0 0.0 0.0 0.0 0.0 0.0 0.0 0.0 0.0 0.0 0.0 0.0 0.0 0.0 0.0 0.0 0.0 0.0 0.0 0.0
1.3 0.9 0.1 0.0 6.5 3.3 6.4 11.1 34.2 38.0 45.6 16.6 0.0 0.6 0.4 0.1 0.3 0.9 1.0 0.4 0.2 0.1 0.1 0.0 0.0 0.0 0.0 0.0 0.0 0.0 0.0 0.0 0.0 0.0 0.0 0.0 0.0 0.0 0.0 0.0 0.0 0.0 0.0 0.0
7.2 9.6 1.6 0.1 1.5 6.7 3.9 9.9 16.8 20.4 11.7 2.8 0.1 11.1 2.1 1.0 0.5 0.5 0.6 0.7 0.3 0.2 0.2 0.2 0.1 0.1 0.0 0.0 0.0 0.0 0.0 0.0 0.0 0.0 0.0 0.0 0.0 0.0 0.0 0.0 0.0 0.0 0.1 0.2
11.9 2.8 0.1 0.2 0.6 1.1 10.1 22.3 2.9 20.7 8.9 14.9 2.0 0.5 0.2 0.1 0.2 0.3 0.7 0.6 0.6 0.6 0.5 0.4 0.2 0.1 0.0 0.0 0.0 0.0 0.0 0.0 0.0 0.0 0.0 0.0 0.0 0.0 0.0 0.0 0.0 0.0 0.0 0.1
6.4 16.6 0.2 0.8 1.6 1.1 2.8 1.1 18.5 25.4 32.7 15.2 2.4 2.3 5.8 1.6 2.9 0.3 1.7 1.1 1.3 1.8 0.8 0.6 0.4 0.3 0.2 0.1 0.1 0.0 0.0 0.1 0.1 0.0 0.0 0.0 0.0 0.0 0.0 0.0 0.0 0.0 0.0 0.0
8.6 16.0 5.8 2.3 13.8 11.1 6.9 8.5 6.3 5.9 12.7 19.3 11.5 12.5 14.0 7.4 6.4 6.8 2.2 1.3 2.2 2.1 3.4 1.6 0.9 0.6 1.3 1.1 1.6 1.0 0.9 3.2 0.4 0.1 0.1 0.1 0.1 0.1 0.1 0.1 0.1 0.2 0.6 0.7
2.9 12.9 18.3 10.6 5.9 2.1 2.8 5.8 3.2 16.8 10.2 8.2 13.0 13.1 10.0 10.3 10.7 6.5 2.5 2.0 1.8 3.0 5.1 4.2 4.4 3.4 4.4 4.3 4.1 4.9 3.9 5.7 1.7 1.1 0.3 0.3 0.2 0.2 0.7 0.4 0.5 0.3 0.2 0.2
9.4 17.1 18.6 12.4 8.3 4.7 11.1 3.8 5.9 4.6 5.8 10.9 16.9 12.3 6.6 9.1 8.5 7.0 6.7 3.0 2.1 2.3 4.3 6.3 8.4 9.4 8.4 7.1 7.4 8.6 7.8 6.0 2.7 2.2 0.9 0.8 0.9 0.5 1.1 2.0 1.2 0.4 0.2 0.2
nan 8.3 14.6 16.5 12.7 12.9 16.9 9.3 6.0 7.6 24.9 10.5 13.7 10.4 8.3 7.5 8.9 8.4 7.1 4.2 4.7 6.2 8.8 9.4 9.7 11.5 11.7 10.7 11.6 9.5 10.8 5.5 4.5 3.7 2.2 2.2 2.0 1.4 1.1 1.0 1.3 0.6 0.5 0.4
7.9 12.9 7.0 7.3 9.4 14.8 17.1 12.8 9.5 17.3 15.7 18.4 14.8 14.7 12.7 12.1 12.0 13.7 12.9 10.9 9.0 10.1 9.6 11.7 14.4 14.7 16.7 14.9 12.6 8.2 6.7 6.3 5.5 5.5 4.3 4.9 3.7 2.5 2.5 2.2 2.4 1.5 1.1 1.1
4.7 10.9 6.4 8.3 10.2 12.8 13.8 9.1 7.9 6.0 8.0 10.5 12.0 14.6 15.3 15.7 14.3 14.3 15.2 13.9 16.6 16.2 15.8 17.7 19.9 18.5 17.2 14.3 13.0 8.2 7.1 7.2 6.4 8.0 9.6 8.3 4.9 3.9 3.4 2.7 2.7 1.9 2.6 2.6
8.9 9.1 12.7 19.1 7.2 8.0 18.5 21.0 12.1 15.9 11.4 8.9 15.9 19.0 19.9 20.8 17.5 16.6 15.9 17.4 17.5 17.9 21.6 23.5 22.1 17.4 11.1 8.5 5.6 6.6 6.3 4.7 3.4 3.7 3.7 3.2 3.6 3.0 3.2 2.6 2.5 3.8 3.2 1.9
8.4 9.5 8.6 21.3 9.9 43.9 18.1 10.1 11.2 21.5 16.6 15.4 12.6 14.8 16.6 21.6 20.7 18.0 15.6 14.8 16.5 18.6 16.1 12.2 8.4 6.0 7.0 4.9 4.1 2.1 1.9 1.9 2.0 3.0 2.2 2.1 1.9 2.0 1.7 1.5 2.1 1.9 1.7 1.5
4.5 7.1 27.2 36.5 23.8 7.2 2.4 11.3 14.6 14.0 17.4 15.9 15.7 10.3 14.1 14.0 8.9 13.5 15.5 14.1 15.0 13.2 9.5 9.3 8.5 8.9 4.1 4.8 4.3 2.6 3.1 2.2 1.9 3.9 4.2 3.9 2.2 2.4 2.0 2.0 2.0 2.0 1.6 1.4
5.4 5.3 10.6 27.4 29.7 31.8 8.3 4.4 2.1 5.2 15.5 15.5 17.6 16.8 11.2 0.3 6.0 11.9 13.7 8.7 9.4 8.3 6.1 5.7 4.6 3.4 2.2 2.6 1.1 0.7 1.1 2.5 2.9 2.5 2.6 2.9 3.1 3.1 2.9 2.3 2.4 2.4 2.1 1.7
18.6 21.4 30.2 22.9 26.7 12.2 3.8 0.6 0.3 8.9 11.8 16.1 14.6 14.2 2.2 4.1 6.4 10.2 7.7 6.1 5.7 6.5 7.0 4.4 3.3 3.1 2.6 1.7 1.8 1.5 1.4 2.5 2.2 2.6 2.6 2.1 2.2 2.6 2.2 2.1 1.6 1.6 1.9 1.7
10.6 18.1 27.6 21.0 26.5 35.3 1.5 0.0 4.5 7.9 8.3 10.1 7.8 6.1 5.6 7.6 7.5 5.5 4.3 5.0 4.7 5.6 4.4 4.1 3.6 3.2 2.5 1.4 1.1 1.5 1.8 2.3 2.3 2.3 2.6 2.8 3.5 2.5 2.4 4.6 3.4 4.6 3.8 3.8
9.7 4.7 7.8 4.9 7.9 4.0 3.4 3.8 4.4 5.8 5.0 4.3 2.4 2.0 0.6 0.5 0.8 0.2 0.1 0.1 0.5 0.7 1.5 2.1 2.7 3.3 3.5 3.7 3.3 3.3 3.1 2.7 3.1 4.0 5.6 5.1 4.2 3.4 3.3 4.9 3.8 5.5 4.4 5.8
0.7 0.3 3.0 3.8 1.9 3.2 3.6 1.3 1.7 1.9 0.3 0.1 0.1 0.1 0.0 0.0 0.0 0.0 0.0 0.0 0.0 0.3 0.8 0.9 1.6 2.1 2.2 2.0 1.9 1.8 2.0 2.2 6.5 6.0 3.4 2.5 3.1 2.1 2.3 2.9 3.5 5.2 5.2 5.1
0.3 0.1 0.3 1.4 0.4 1.3 0.6 0.1 0.2 0.7 0.8 0.2 0.2 0.3 0.1 0.0 0.0 0.0 0.0 0.1 0.0 0.1 0.4 1.1 1.3 1.2 1.3 1.2 1.3 2.1 1.9 2.6 2.7 3.4 2.2 2.5 3.2 3.4 2.4 2.1 3.4 3.1 1.6 4.4
0.3 0.5 0.7 0.7 0.2 0.1 0.0 0.0 0.0 0.0 0.2 0.1 0.0 0.0 0.0 0.1 0.0 0.1 0.1 0.0 0.1 0.2 0.4 0.7 1.1 1.1 1.1 1.8 2.2 3.2 4.3 3.8 4.7 2.3 3.4 3.0 2.9 3.0 2.8 3.3 4.2 nan nan nan
Water_Equivalent
0.00 0.06 0.20 0.01 0.02 0.03 0.04 0.08 0.10 0.00 0.00 0.00 0.01 0.00 0.00 0.00 0.00 0.00 0.00 0.00 0.00 0.00 0.00 0.00 0.00 0.00 0.00 0.00 0.00 0.00 0.00 0.00 0.00 0.00 0.00 0.00 0.00 0.00 0.00 0.00 0.00 0.00 0.00 0.00
0.12 0.26 0.00 0.00 0.00 0.02 0.05 0.12 0.11 0.00 0.00 0.01 0.01 0.01 0.00 0.00 0.00 0.00 0.00 0.00 0.00 0.00 0.00 0.00 0.00 0.00 0.00 0.00 0.00 0.00 0.00 0.00 0.00 0.00 0.00 0.00 0.00 0.00 0.00 0.00 0.00 0.00 0.00 0.00
0.25 0.05 0.00 0.00 0.00 0.02 0.09 0.17 0.06 0.06 0.00 0.00 0.03 0.07 0.00 0.00 0.00 0.00 0.00 0.00 0.00 0.00 0.00 0.00 0.00 0.00 0.00 0.00 0.00 0.00 0.00 0.00 0.00 0.00 0.00 0.00 0.00 0.00 0.00 0.00 0.00 0.00 0.00 0.00
0.32 0.00 0.01 0.09 0.19 0.02 0.25 0.02 0.05 0.09 0.66 0.66 0.04 1.56 0.00 0.00 0.00 0.00 0.00 0.00 0.00 0.00 0.00 0.00 0.00 0.00 0.00 0.00 0.00 0.00 0.00 0.00 0.00 0.00 0.00 0.00 0.00 0.00 0.00 0.00 0.00 0.00 0.00 0.00
0.59 0.09 0.08 0.51 0.07 0.01 0.43 0.01 0.03 0.13 0.60 0.64 0.30 1.39 0.00 0.00 0.00 0.00 0.00 0.00 0.00 0.00 0.00 0.00 0.00 0.00 0.00 0.00 0.00 0.00 0.00 0.00 0.00 0.00 0.00 0.00 0.00 0.00 0.00 0.00 0.00 0.00 0.00 0.00
0.11 0.00 0.45 0.25 0.02 0.05 0.02 0.22 0.12 0.44 0.90 5.01 0.21 0.18 0.03 0.03 0.07 0.00 0.01 0.02 0.01 0.00 0.00 0.00 0.00 0.00 0.00 0.00 0.00 0.00 0.00 0.00 0.00 0.00 0.00 0.00 0.00 0.00 0.00 0.00 0.00 0.00 0.00 0.00
0.25 0.19 0.03 0.00 0.95 0.67 0.93 1.37 4.50 5.54 6.40 2.26 0.01 0.10 0.06 0.01 0.04 0.10 0.11 0.05 0.02 0.01 0.01 0.00 0.00 0.00 0.00 0.00 0.00 0.00 0.00 0.00 0.00 0.00 0.00 0.00 0.00 0.00 0.00 0.00 0.00 0.00 0.00 0.01
1.06 1.71 0.28 0.02 0.23 0.90 0.57 1.17 1.84 1.82 1.30 0.43 0.01 1.44 0.28 0.10 0.05 0.07 0.07 0.10 0.04 0.03 0.02 0.02 0.02 0.01 0.00 0.00 0.00 0.00 0.00 0.00 0.00 0.00 0.00 0.00 0.00 0.00 0.00 0.00 0.00 0.00 0.05 0.06
1.61 0.47 0.02 0.05 0.11 0.18 1.52 2.78 0.43 2.22 1.08 1.43 0.38 0.06 0.02 0.02 0.03 0.04 0.10 0.07 0.07 0.06 0.06 0.05 0.02 0.02 0.01 0.00 0.00 0.00 0.00 0.00 0.00 0.00 0.00 0.00 0.00 0.00 0.00 0.00 0.00 0.01 0.00 0.02
1.00 1.97 0.04 0.15 0.31 0.23 0.43 0.15 2.07 3.47 3.61 1.54 0.33 0.24 0.74 0.24 0.42 0.04 0.25 0.12 0.14 0.22 0.09 0.07 0.05 0.04 0.03 0.02 0.02 0.01 0.01 0.03 0.02 0.01 0.00 0.00 0.00 0.01 0.01 0.01 0.01 0.01 0.01 0.01
1.63 2.17 0.81 0.35 2.45 1.70 0.99 1.12 0.80 0.68 1.56 2.10 1.17 1.48 2.29 0.79 0.70 0.71 0.26 0.15 0.24 0.23 0.41 0.19 0.12 0.08 0.28 0.27 0.53 0.26 0.26 0.96 0.11 0.04 0.02 0.02 0.02 0.02 0.03 0.03 0.03 0.05 0.16 0.21
0.55 1.83 2.42 1.85 1.12 0.34 0.38 0.85 0.37 2.10 1.26 1.05 1.47 1.29 1.45 1.19 1.20 0.71 0.27 0.21 0.20 0.32 0.56 0.51 0.54 0.58 1.03 1.04 1.07 1.07 0.82 1.42 0.49 0.35 0.08 0.08 0.05 0.06 0.20 0.11 0.11 0.08 0.07 0.07
1.46 2.19 2.59 1.94 1.31 0.73 1.53 0.52 0.76 0.50 0.74 1.44 2.03 1.50 0.89 1.08 1.01 0.77 0.73 0.34 0.25 0.27 0.46 0.73 1.16 1.69 1.76 1.30 1.32 1.68 1.57 1.33 0.63 0.64 0.26 0.21 0.24 0.13 0.31 0.54 0.34 0.12 0.06 0.06
nan 1.07 1.72 1.97 1.82 1.92 1.91 1.08 0.74 0.83 3.78 1.56 1.48 1.29 1.06 0.89 1.02 0.95 0.82 0.49 0.56 0.74 1.01 1.31 1.35 1.79 1.94 1.88 2.11 1.67 2.02 1.25 1.09 0.96 0.48 0.46 0.48 0.38 0.27 0.27 0.35 0.15 0.15 0.12
1.21 1.76 0.81 0.94 1.17 2.01 2.15 1.44 0.97 1.81 1.80 2.07 1.72 1.44 1.50 1.44 1.36 1.54 1.52 1.22 0.95 1.10 1.10 1.42 1.94 2.23 2.89 2.73 2.21 1.47 1.19 1.24 1.23 1.24 0.78 0.83 0.77 0.53 0.59 0.50 0.57 0.34 0.26 0.28
0.68 1.71 0.73 1.12 1.28 1.67 1.66 1.01 0.90 0.64 0.79 1.14 1.34 1.56 2.09 1.89 1.66 1.68 1.85 1.44 1.57 1.63 1.75 2.30 2.81 2.91 2.47 2.02 1.71 1.15 0.94 1.04 1.21 1.20 1.37 1.20 0.73 0.62 0.54 0.44 0.52 0.42 0.67 0.74
1.07 1.17 2.40 3.86 0.82 0.85 3.00 2.35 1.31 1.75 1.35 0.98 1.59 2.83 2.89 2.76 1.96 1.99 1.80 1.79 1.83 2.19 2.78 2.98 2.79 1.99 1.16 0.91 0.59 0.68 0.72 0.61 0.42 0.47 0.40 0.35 0.39 0.33 0.39 0.31 0.30 0.52 0.62 0.39
0.95 1.19 1.46 4.51 2.09 7.63 2.48 1.34 1.41 2.66 1.91 1.86 1.50 1.95 2.56 3.15 2.74 2.42 2.10 1.80 1.81 1.94 1.82 1.37 0.98 0.70 0.89 0.55 0.54 0.25 0.22 0.23 0.25 0.34 0.26 0.24 0.21 0.26 0.24 0.20 0.30 0.30 0.28 0.25
0.64 0.92 5.06 6.86 3.92 0.96 0.27 1.42 1.68 1.46 2.16 2.14 1.85 1.38 2.10 2.00 1.01 1.94 2.14 1.72 1.90 1.44 1.14 1.10 1.09 1.15 0.45 0.58 0.50 0.29 0.35 0.25 0.21 0.46 0.52 0.51 0.32 0.35 0.28 0.28 0.28 0.30 0.23 0.21
0.69 0.66 1.31 5.70 5.67 4.61 1.15 0.58 0.30 0.71 2.03 2.09 2.43 2.20 1.55 0.04 0.85 2.20 2.32 1.24 1.27 1.03 0.72 0.68 0.55 0.43 0.29 0.37 0.15 0.09 0.14 0.29 0.32 0.29 0.31 0.35 0.40 0.40 0.38 0.31 0.31 0.33 0.29 0.23
3.00 3.94 5.93 4.52 4.81 2.08 0.58 0.09 0.05 1.10 1.73 2.26 2.07 1.99 0.26 0.47 0.90 1.57 1.01 0.77 0.74 0.77 0.82 0.53 0.40 0.36 0.36 0.28 0.27 0.19 0.19 0.29 0.27 0.30 0.29 0.24 0.25 0.32 0.26 0.24 0.19 0.21 0.25 0.21
1.45 2.90 5.24 3.74 4.78 5.50 0.25 0.00 0.46 1.18 1.23 1.47 1.15 0.82 0.66 1.05 1.05 0.76 0.58 0.66 0.56 0.62 0.47 0.48 0.35 0.31 0.26 0.15 0.12 0.16 0.18 0.22 0.22 0.23 0.26 0.29 0.43 0.30 0.29 0.67 0.43 0.65 0.50 0.51
1.26 0.58 1.19 0.60 1.15 0.62 0.49 0.55 0.68 0.81 0.75 0.71 0.34 0.26 0.08 0.06 0.10 0.03 0.02 0.01 0.05 0.07 0.14 0.21 0.26 0.30 0.32 0.36 0.34 0.31 0.28 0.25 0.30 0.47 0.73 0.67 0.58 0.46 0.45 0.74 0.48 0.82 0.62 0.86
0.11 0.05 0.43 0.51 0.28 0.47 0.55 0.22 0.27 0.29 0.06 0.02 0.01 0.01 0.00 0.00 0.01 0.00 0.00 0.00 0.00 0.03 0.08 0.09 0.16 0.20 0.21 0.19 0.19 0.18 0.20 0.22 0.94 0.88 0.43 0.30 0.40 0.29 0.32 0.49 0.59 0.92 0.83 0.76
0.07 0.03 0.06 0.20 0.08 0.22 0.11 0.02 0.04 0.11 0.13 0.03 0.03 0.03 0.01 0.00 0.00 0.00 0.01 0.01 0.01 0.01 0.05 0.11 0.14 0.12 0.13 0.12 0.13 0.25 0.21 0.32 0.37 0.48 0.26 0.33 0.48 0.54 0.32 0.29 0.54 0.46 0.22 0.67
0.05 0.07 0.13 0.16 0.04 0.03 0.01 0.00 0.00 0.00 0.03 0.01 0.00 0.01 0.01 0.01 0.00 0.01 0.01 0.01 0.02 0.03 0.05 0.09 0.13 0.12 0.12 0.19 0.23 0.36 0.58 0.53 0.60 0.25 0.43 0.42 0.43 0.41 0.37 0.42 0.49 nan nan nan
SL_Ratio
nan 7.2 7.4 6.7 7.8 7.8 7.7 10.1 10.8 8.0 nan 10.0 9.5 8.8 nan nan nan nan nan nan nan nan nan nan nan nan nan nan nan nan nan nan nan nan nan nan nan nan nan nan nan nan nan nan
6.0 7.4 nan nan nan 6.3 6.6 9.0 8.8 nan nan 8.0 8.9 10.0 nan nan nan nan nan nan nan nan nan nan nan nan nan nan nan nan nan nan nan nan nan nan nan nan nan nan nan nan nan nan
7.3 4.5 nan 5.0 7.5 6.8 6.8 8.3 9.4 10.1 10.0 5.0 7.0 7.5 nan nan nan nan nan nan nan nan nan nan nan nan nan nan nan nan nan nan nan nan nan nan nan nan nan nan nan nan nan nan
5.1 5.0 5.5 6.4 8.1 7.0 9.1 7.0 8.1 8.0 7.5 9.0 7.1 9.4 nan nan nan nan nan nan nan nan nan nan nan nan nan nan nan nan nan nan nan nan nan nan nan nan nan nan nan nan nan nan
6.2 5.2 7.7 6.6 6.7 6.7 7.5 8.3 8.5 7.0 6.9 8.1 7.6 8.6 10.0 10.0 nan nan 7.5 nan nan 10.0 nan nan nan nan nan nan nan nan nan nan nan nan nan nan nan nan nan nan nan nan nan nan
6.3 nan 5.6 4.9 5.0 6.8 6.3 7.2 6.2 5.9 7.1 7.6 7.0 7.6 5.4 6.5 11.1 10.0 8.3 7.5 6.9 7.5 nan nan nan nan nan nan nan nan nan nan nan nan nan nan nan nan nan nan nan nan nan nan
5.3 4.9 4.3 5.0 6.9 5.0 6.9 8.1 7.6 6.9 7.1 7.3 4.7 6.4 6.9 9.3 9.9 9.4 9.3 8.0 7.4 7.2 7.5 6.7 7.5 5.0 nan nan nan nan nan nan nan nan nan nan nan nan nan nan nan nan 2.9 2.5
6.8 5.6 5.7 3.9 6.6 7.5 6.9 8.5 9.1 11.2 9.0 6.5 6.8 7.7 7.5 9.6 8.7 6.8 8.3 7.3 7.8 8.1 8.2 7.9 7.1 6.5 nan nan nan nan nan nan nan nan nan nan nan nan nan nan nan nan 2.5 2.6
7.4 5.8 4.4 4.9 5.5 6.4 6.7 8.0 6.8 9.3 8.2 10.4 5.3 8.9 8.8 8.8 6.1 7.2 6.9 8.6 9.0 8.9 8.7 8.5 7.7 7.3 5.5 5.0 nan nan nan nan nan nan nan nan nan nan nan nan nan 2.7 2.9 2.7
6.4 8.4 5.2 5.5 5.2 4.8 6.7 7.0 8.9 7.3 9.0 9.9 7.5 9.7 7.9 6.8 7.0 6.8 6.7 9.0 9.2 8.2 8.9 8.1 7.7 7.2 7.0 3.9 3.1 2.7 3.1 3.0 3.1 3.1 2.5 nan nan 3.0 3.3 3.4 3.4 3.4 3.2 3.2
5.3 7.4 7.1 6.5 5.6 6.5 7.0 7.6 7.9 8.7 8.2 9.2 9.9 8.4 6.1 9.4 9.2 9.6 8.5 9.0 9.3 9.1 8.4 8.2 7.6 7.2 4.7 4.0 3.1 3.9 3.7 3.3 3.3 3.4 3.2 3.2 3.4 3.7 3.7 3.8 3.8 3.6 3.6 3.4
5.2 7.1 7.6 5.7 5.3 6.1 7.4 6.9 8.6 8.0 8.1 7.8 8.9 10.2 6.9 8.7 8.9 9.2 9.1 9.4 9.1 9.4 9.0 8.2 8.1 5.8 4.2 4.1 3.8 4.6 4.8 4.0 3.5 3.2 3.3 3.5 3.6 3.6 3.6 3.9 4.0 3.8 3.8 3.5
6.4 7.8 7.2 6.4 6.4 6.4 7.3 7.2 7.8 9.1 7.8 7.5 8.3 8.2 7.4 8.4 8.4 9.2 9.2 8.7 8.7 8.5 9.5 8.7 7.2 5.5 4.8 5.5 5.6 5.1 5.0 4.5 4.3 3.4 3.5 3.8 3.7 3.7 3.5 3.6 3.5 3.4 3.4 3.5
nan 7.8 8.5 8.4 7.0 6.7 8.8 8.6 8.1 9.2 6.6 6.7 9.3 8.1 7.8 8.4 8.8 8.9 8.6 8.7 8.5 8.5 8.8 7.2 7.2 6.4 6.0 5.7 5.5 5.7 5.3 4.4 4.1 3.8 4.5 4.7 4.1 3.9 4.0 3.8 3.7 3.9 3.5 3.5
6.5 7.3 8.7 7.7 8.0 7.4 7.9 8.9 9.8 9.6 8.7 8.9 8.6 10.2 8.5 8.4 8.8 8.9 8.5 8.9 9.5 9.2 8.8 8.2 7.4 6.6 5.8 5.5 5.7 5.6 5.7 5.1 4.5 4.4 5.5 5.9 4.8 4.7 4.3 4.4 4.1 4.4 4.1 3.8
7.0 6.4 8.8 7.4 8.0 7.6 8.3 9.0 8.8 9.3 10.1 9.2 8.9 9.4 7.3 8.3 8.6 8.5 8.2 9.6 10.6 9.9 9.0 7.7 7.1 6.4 7.0 7.1 7.6 7.1 7.5 7.0 5.3 6.7 7.0 6.9 6.7 6.4 6.3 6.1 5.1 4.5 3.9 3.5
8.3 7.8 5.3 5.0 8.8 9.4 6.2 8.9 9.2 9.1 8.4 9.1 10.0 6.7 6.9 7.5 8.9 8.4 8.8 9.7 9.6 8.2 7.8 7.9 7.9 8.8 9.5 9.3 9.4 9.7 8.9 7.6 8.1 8.0 9.2 9.1 9.2 9.1 8.2 8.4 8.3 7.3 5.2 5.0
8.8 8.0 5.9 4.7 4.7 5.8 7.3 7.5 8.0 8.1 8.7 8.3 8.4 7.6 6.5 6.8 7.6 7.4 7.4 8.2 9.1 9.6 8.8 8.9 8.5 8.7 7.9 8.9 7.7 8.6 8.5 8.1 7.8 8.7 8.5 8.7 9.1 7.5 7.1 7.5 7.0 6.3 6.4 6.0
7.0 7.8 5.4 5.3 6.1 7.4 8.9 7.9 8.7 9.6 8.1 7.4 8.5 7.5 6.7 7.0 8.8 6.9 7.2 8.2 7.9 9.2 8.4 8.5 7.8 7.7 9.0 8.3 8.5 9.0 8.7 8.6 8.8 8.5 8.1 7.7 6.9 6.8 7.0 7.1 7.0 6.8 6.7 6.4
7.8 8.1 8.1 4.8 5.2 6.9 7.2 7.6 7.1 7.3 7.6 7.5 7.3 7.6 7.2 7.7 7.0 5.4 5.9 7.0 7.4 8.0 8.4 8.4 8.3 7.9 7.6 7.2 7.1 7.4 8.1 8.6 8.8 8.6 8.5 8.2 7.7 7.7 7.6 7.6 7.7 7.3 7.2 7.4
6.2 5.4 5.1 5.1 5.6 5.9 6.6 7.0 7.6 8.1 6.8 7.2 7.1 7.1 8.6 8.7 7.1 6.5 7.6 8.0 7.7 8.4 8.5 8.3 8.1 8.5 7.3 6.2 6.5 7.5 7.4 8.5 8.4 8.5 8.9 9.0 8.8 8.2 8.5 8.4 8.3 7.8 7.8 8.1
7.3 6.3 5.3 5.6 5.5 6.4 6.2 5.0 9.8 6.7 6.8 6.9 6.8 7.5 8.5 7.2 7.2 7.3 7.5 7.7 8.3 8.9 9.4 8.6 10.0 10.4 9.6 8.8 8.8 9.6 10.1 10.2 10.1 10.0 10.0 9.7 8.2 8.4 8.5 6.9 8.0 7.1 7.5 7.4
7.7 8.0 6.5 8.3 6.9 6.4 6.9 7.0 6.5 7.2 6.7 6.1 6.9 7.8 7.7 8.2 7.8 7.3 8.5 9.1 10.2 10.4 10.3 10.0 10.6 10.9 10.8 10.1 9.6 10.4 10.9 10.6 10.4 8.6 7.7 7.5 7.4 7.4 7.4 6.6 7.9 6.7 7.1 6.8
6.7 6.1 7.0 7.5 6.6 6.8 6.6 5.7 6.1 6.4 5.8 6.8 9.4 8.6 8.3 10.0 8.1 8.8 15.0 10.0 10.0 9.6 10.1 9.9 9.8 10.3 10.8 10.6 10.1 10.1 10.3 9.9 6.9 6.8 8.0 8.4 7.8 7.1 7.3 6.0 5.9 5.7 6.3 6.8
4.4 3.6 4.9 7.0 5.0 5.8 5.5 4.6 5.2 6.0 6.1 6.8 7.4 8.1 9.2 7.9 8.3 8.3 4.1 4.1 3.9 5.6 8.9 9.4 9.4 9.8 10.3 10.1 10.1 8.7 9.0 8.1 7.3 7.0 8.6 7.6 6.6 6.4 7.6 7.3 6.3 6.7 7.3 6.6
6.1 7.3 5.2 4.4 5.3 5.1 4.2 10.0 nan 15.0 8.2 8.5 9.0 4.5 3.6 6.7 5.8 5.3 5.0 4.7 5.2 6.3 7.9 8.5 8.4 9.1 9.8 9.6 9.5 8.8 7.5 7.1 7.8 9.3 8.0 7.2 6.8 7.2 7.4 7.8 8.5 nan nan nan